Time,TemperatureF,DewpointF,PressureIn,WindDirection,WindDirectionDegrees,WindSpeedMPH,WindSpeedGustMPH,Humidity,HourlyPrecipIn,Conditions,Clouds,dailyrainin,SolarRadiationWatts/m^2,SoftwareType,DateUTC
2013-02-25 00:09:00,43.6,36.9,29.89,South,178,10.0,11.0,77,0.08,,,0.01,0,Wunderground v.1.15,2013-02-25 08:09:00,
2013-02-25 00:19:00,43.2,37.4,29.89,SSE,150,7.0,9.0,80,0.06,,,0.02,0,Wunderground v.1.15,2013-02-25 08:19:00,
2013-02-25 00:29:00,42.8,37.7,29.89,East,93,6.0,11.0,82,0.10,,,0.03,0,Wunderground v.1.15,2013-02-25 08:29:00,
2013-02-25 00:39:00,42.5,38.0,29.88,SSE,152,8.0,8.0,84,0.05,,,0.04,0,Wunderground v.1.15,2013-02-25 08:39:00,
2013-02-25 00:49:00,42.3,37.5,29.88,SE,133,7.0,13.0,83,0.05,,,0.05,0,Wunderground v.1.15,2013-02-25 08:49:00,
2013-02-25 00:59:00,42.2,37.7,29.88,South,171,7.0,7.0,84,0.05,,,0.05,0,Wunderground v.1.15,2013-02-25 08:59:00,
2013-02-25 01:24:00,41.9,37.7,29.86,ESE,113,6.0,6.0,85,0.06,,,0.07,0,Wunderground v.1.15,2013-02-25 09:24:00,
2013-02-25 01:34:00,41.9,38.0,29.85,SSE,151,5.0,7.0,86,0.05,,,0.07,0,Wunderground v.1.15,2013-02-25 09:34:00,
2013-02-25 01:39:00,41.9,38.0,29.85,ESE,109,5.0,7.0,86,0.00,,,0.07,0,Wunderground v.1.15,2013-02-25 09:39:00,
2013-02-25 01:54:00,41.8,38.2,29.85,ESE,103,4.0,4.0,87,0.00,,,0.08,0,Wunderground v.1.15,2013-02-25 09:54:00,
2013-02-25 01:59:00,41.8,38.2,29.85,ESE,120,3.0,8.0,87,0.00,,,0.08,0,Wunderground v.1.15,2013-02-25 09:59:00,
2013-02-25 02:10:00,41.8,38.2,29.84,South,169,5.0,5.0,87,0.00,,,0.08,0,Wunderground v.1.15,2013-02-25 10:10:00,
2013-02-25 02:20:00,41.8,38.5,29.85,WSW,240,3.0,11.0,88,0.00,,,0.09,0,Wunderground v.1.15,2013-02-25 10:20:00,
2013-02-25 02:28:00,41.8,38.8,29.85,ESE,116,3.0,3.0,89,0.00,,,0.09,0,Wunderground v.1.15,2013-02-25 10:28:00,
2013-02-25 02:39:00,41.8,38.8,29.84,ESE,113,4.0,4.0,89,0.00,,,0.09,0,Wunderground v.1.15,2013-02-25 10:39:00,
2013-02-25 02:49:00,41.8,39.1,29.83,SSE,162,3.0,3.0,90,0.00,,,0.09,0,Wunderground v.1.15,2013-02-25 10:49:00,
2013-02-25 02:59:00,42.1,39.4,29.83,SE,130,5.0,6.0,90,0.00,,,0.09,0,Wunderground v.1.15,2013-02-25 10:59:00,
2013-02-25 03:09:00,42.3,39.3,29.82,ESE,113,7.0,11.0,89,0.00,,,0.09,0,Wunderground v.1.15,2013-02-25 11:09:00,
2013-02-25 03:19:00,42.5,38.9,29.82,SSE,164,9.0,18.0,87,0.00,,,0.09,0,Wunderground v.1.15,2013-02-25 11:19:00,
2013-02-25 03:33:00,42.6,38.7,29.83,SSW,200,9.0,9.0,86,0.00,,,0.09,0,Wunderground v.1.15,2013-02-25 11:33:00,
2013-02-25 03:39:00,42.6,39.0,29.83,SSW,210,8.0,14.0,87,0.00,,,0.09,0,Wunderground v.1.15,2013-02-25 11:39:00,
2013-02-25 03:49:00,42.6,38.7,29.84,SSW,203,10.0,12.0,86,0.00,,,0.09,0,Wunderground v.1.15,2013-02-25 11:49:00,
2013-02-25 04:03:00,42.8,38.9,29.84,South,176,9.0,9.0,86,0.00,,,0.09,0,Wunderground v.1.15,2013-02-25 12:03:00,
2013-02-25 04:09:00,42.8,38.6,29.84,SSW,199,9.0,9.0,85,0.00,,,0.09,0,Wunderground v.1.15,2013-02-25 12:09:00,
2013-02-25 04:19:00,42.8,38.9,29.84,South,174,8.0,16.0,86,0.00,,,0.09,0,Wunderground v.1.15,2013-02-25 12:19:00,
2013-02-25 04:34:00,42.8,38.6,29.84,South,175,10.0,22.0,85,0.00,,,0.09,0,Wunderground v.1.15,2013-02-25 12:34:00,
2013-02-25 04:39:00,42.8,38.3,29.84,SSW,196,11.0,22.0,84,0.00,,,0.09,0,Wunderground v.1.15,2013-02-25 12:39:00,
2013-02-25 04:50:00,42.8,38.3,29.84,SSE,168,10.0,11.0,84,0.00,,,0.09,0,Wunderground v.1.15,2013-02-25 12:50:00,
2013-02-25 04:59:00,42.8,38.3,29.84,SSW,192,10.0,14.0,84,0.00,,,0.09,0,Wunderground v.1.15,2013-02-25 12:59:00,
2013-02-25 05:09:00,42.6,37.8,29.85,SSW,209,9.0,10.0,83,0.00,,,0.09,0,Wunderground v.1.15,2013-02-25 13:09:00,
2013-02-25 05:24:00,42.6,37.8,29.87,SSW,196,11.0,15.0,83,0.00,,,0.09,0,Wunderground v.1.15,2013-02-25 13:24:00,
2013-02-25 05:33:00,42.6,38.1,29.87,SSW,198,11.0,11.0,84,0.00,,,0.09,0,Wunderground v.1.15,2013-02-25 13:33:00,
2013-02-25 05:38:00,42.6,38.1,29.87,SW,219,9.0,12.0,84,0.00,,,0.09,0,Wunderground v.1.15,2013-02-25 13:38:00,
2013-02-25 05:48:00,42.8,38.0,29.88,SSW,202,9.0,13.0,83,0.00,,,0.09,0,Wunderground v.1.15,2013-02-25 13:48:00,
2013-02-25 05:59:00,42.8,37.7,29.88,SSE,150,11.0,14.0,82,0.00,,,0.09,0,Wunderground v.1.15,2013-02-25 13:59:00,
2013-02-25 06:08:00,42.8,37.7,29.87,South,189,11.0,11.0,82,0.00,,,0.09,0,Wunderground v.1.15,2013-02-25 14:08:00,
2013-02-25 06:19:00,42.6,37.5,29.88,ESE,120,9.0,26.0,82,0.00,,,0.09,0,Wunderground v.1.15,2013-02-25 14:19:00,
2013-02-25 06:33:00,42.3,37.2,29.88,South,176,9.0,15.0,82,0.00,,,0.09,0,Wunderground v.1.15,2013-02-25 14:33:00,
2013-02-25 06:43:00,42.3,37.2,29.88,South,172,11.0,11.0,82,0.00,,,0.09,0,Wunderground v.1.15,2013-02-25 14:43:00,
2013-02-25 06:49:00,42.3,37.2,29.88,South,182,11.0,14.0,82,0.00,,,0.09,0,Wunderground v.1.15,2013-02-25 14:49:00,
2013-02-25 06:59:00,42.3,36.9,29.88,SW,233,11.0,14.0,81,0.00,,,0.09,0,Wunderground v.1.15,2013-02-25 14:59:00,
2013-02-25 07:09:00,42.2,37.1,29.88,SSE,162,8.0,13.0,82,0.00,,,0.09,9,Wunderground v.1.15,2013-02-25 15:09:00,
2013-02-25 07:19:00,42.1,37.3,29.88,SW,234,11.0,11.0,83,0.00,,,0.09,14,Wunderground v.1.15,2013-02-25 15:19:00,
2013-02-25 07:29:00,41.9,36.5,29.88,SSW,209,12.0,12.0,81,0.00,,,0.10,19,Wunderground v.1.15,2013-02-25 15:29:00,
2013-02-25 07:39:00,41.8,36.7,29.89,SE,144,10.0,10.0,82,0.00,,,0.10,33,Wunderground v.1.15,2013-02-25 15:39:00,
2013-02-25 07:54:00,41.6,36.5,29.88,SSW,198,11.0,14.0,82,0.00,,,0.10,46,Wunderground v.1.15,2013-02-25 15:54:00,
2013-02-25 07:59:00,41.5,36.1,29.88,SSW,209,13.0,14.0,81,0.00,,,0.10,49,Wunderground v.1.15,2013-02-25 15:59:00,
2013-02-25 08:14:00,41.6,36.5,29.89,SSE,164,12.0,12.0,82,0.00,,,0.10,79,Wunderground v.1.15,2013-02-25 16:14:00,
2013-02-25 08:20:00,41.8,36.7,29.91,SSW,200,10.0,12.0,82,0.00,,,0.10,86,Wunderground v.1.15,2013-02-25 16:20:00,
2013-02-25 08:33:00,41.9,36.8,29.92,SSE,162,5.0,8.0,82,0.00,,,0.10,56,Wunderground v.1.15,2013-02-25 16:33:00,
2013-02-25 08:38:00,41.8,36.7,29.92,SE,128,5.0,11.0,82,0.00,,,0.10,55,Wunderground v.1.15,2013-02-25 16:38:00,
2013-02-25 08:48:00,41.9,36.8,29.93,SSW,198,8.0,11.0,82,0.00,,,0.10,60,Wunderground v.1.15,2013-02-25 16:48:00,
2013-02-25 08:59:00,42.1,37.0,29.93,SSW,198,6.0,14.0,82,0.00,,,0.10,62,Wunderground v.1.15,2013-02-25 16:59:00,
2013-02-25 09:09:00,42.2,37.4,29.93,SSE,154,7.0,12.0,83,0.00,,,0.10,93,Wunderground v.1.15,2013-02-25 17:09:00,
2013-02-25 09:19:00,42.3,37.2,29.93,SSE,160,9.0,10.0,82,0.00,,,0.10,121,Wunderground v.1.15,2013-02-25 17:19:00,
2013-02-25 09:29:00,42.6,37.5,29.93,SE,134,9.0,10.0,82,0.00,,,0.10,106,Wunderground v.1.15,2013-02-25 17:29:00,
2013-02-25 09:39:00,42.9,37.5,29.92,SSE,167,9.0,9.0,81,0.00,,,0.10,72,Wunderground v.1.15,2013-02-25 17:39:00,
2013-02-25 09:49:00,43.2,37.8,29.93,SSW,193,8.0,20.0,81,0.00,,,0.10,67,Wunderground v.1.15,2013-02-25 17:49:00,
2013-02-25 09:59:00,43.3,37.5,29.93,SSW,199,10.0,13.0,80,0.00,,,0.10,65,Wunderground v.1.15,2013-02-25 17:59:00,
2013-02-25 10:09:00,43.5,37.1,29.93,SSE,167,12.0,12.0,78,0.00,,,0.10,63,Wunderground v.1.15,2013-02-25 18:09:00,
2013-02-25 10:19:00,43.8,37.4,29.94,South,186,10.0,12.0,78,0.00,,,0.10,55,Wunderground v.1.15,2013-02-25 18:19:00,
2013-02-25 10:33:00,44.1,36.3,29.94,South,188,12.0,12.0,74,0.00,,,0.10,60,Wunderground v.1.15,2013-02-25 18:33:00,
2013-02-25 10:38:00,44.2,36.1,29.94,South,179,12.0,22.0,73,0.00,,,0.10,62,Wunderground v.1.15,2013-02-25 18:38:00,
2013-02-25 10:48:00,44.3,35.5,29.95,SSE,158,13.0,13.0,71,0.00,,,0.10,63,Wunderground v.1.15,2013-02-25 18:48:00,
2013-02-25 10:59:00,44.5,35.3,29.95,SSE,148,9.0,14.0,70,0.00,,,0.10,76,Wunderground v.1.15,2013-02-25 18:59:00,
2013-02-25 11:09:00,44.6,35.1,29.96,SSW,198,7.0,11.0,69,0.00,,,0.10,93,Wunderground v.1.15,2013-02-25 19:09:00,
2013-02-25 11:19:00,44.9,35.3,29.97,SSW,192,9.0,9.0,69,0.00,,,0.10,118,Wunderground v.1.15,2013-02-25 19:19:00,
2013-02-25 11:29:00,45.2,34.9,29.97,South,185,8.0,8.0,67,0.00,,,0.10,153,Wunderground v.1.15,2013-02-25 19:29:00,
2013-02-25 11:44:00,46.1,35.0,29.98,SSW,203,5.0,5.0,65,0.00,,,0.10,238,Wunderground v.1.15,2013-02-25 19:44:00,
2013-02-25 11:49:00,46.4,34.9,29.99,South,189,6.0,7.0,64,0.00,,,0.10,232,Wunderground v.1.15,2013-02-25 19:49:00,
2013-02-25 11:59:00,47.0,34.6,29.99,SSW,199,8.0,8.0,62,0.00,,,0.10,259,Wunderground v.1.15,2013-02-25 19:59:00,
2013-02-25 12:14:00,48.2,35.0,29.99,ESE,119,7.0,7.0,60,0.00,,,0.10,347,Wunderground v.1.15,2013-02-25 20:14:00,
2013-02-25 12:19:00,48.3,35.0,29.99,South,171,7.0,10.0,60,0.00,,,0.10,326,Wunderground v.1.15,2013-02-25 20:19:00,
2013-02-25 12:29:00,48.5,34.4,29.99,South,176,8.0,11.0,58,0.00,,,0.10,410,Wunderground v.1.15,2013-02-25 20:29:00,
2013-02-25 12:38:00,49.9,33.4,30.00,SSW,193,6.0,8.0,53,0.00,,,0.10,686,Wunderground v.1.15,2013-02-25 20:38:00,
2013-02-25 12:48:00,50.7,31.2,30.00,WSW,239,9.0,16.0,47,0.00,,,0.10,611,Wunderground v.1.15,2013-02-25 20:48:00,
2013-02-25 12:59:00,51.1,33.6,30.00,SSW,208,8.0,8.0,51,0.00,,,0.10,552,Wunderground v.1.15,2013-02-25 20:59:00,
2013-02-25 13:09:00,51.0,34.5,30.00,SSE,152,6.0,11.0,53,0.00,,,0.10,574,Wunderground v.1.15,2013-02-25 21:09:00,
2013-02-25 13:19:00,50.8,35.2,30.00,South,188,7.0,11.0,55,0.00,,,0.10,575,Wunderground v.1.15,2013-02-25 21:19:00,
2013-02-25 13:29:00,49.9,34.4,30.00,SSW,195,9.0,16.0,55,0.00,,,0.10,533,Wunderground v.1.15,2013-02-25 21:29:00,
2013-02-25 13:39:00,50.5,33.0,30.01,SW,226,9.0,9.0,51,0.00,,,0.10,519,Wunderground v.1.15,2013-02-25 21:39:00,
2013-02-25 13:54:00,51.0,32.5,30.00,SSW,208,7.0,7.0,49,0.00,,,0.10,510,Wunderground v.1.15,2013-02-25 21:54:00,
2013-02-25 14:09:00,52.2,32.0,30.01,WNW,294,5.0,5.0,46,0.00,,,0.10,561,Wunderground v.1.15,2013-02-25 22:09:00,
2013-02-25 14:19:00,52.9,32.1,30.01,SW,223,4.0,4.0,45,0.00,,,0.10,556,Wunderground v.1.15,2013-02-25 22:19:00,
2013-02-25 14:29:00,52.3,29.3,30.01,SSE,160,6.0,10.0,41,0.00,,,0.10,632,Wunderground v.1.15,2013-02-25 22:29:00,
2013-02-25 14:38:00,51.7,30.5,30.01,SSE,164,9.0,17.0,44,0.00,,,0.10,596,Wunderground v.1.15,2013-02-25 22:38:00,
2013-02-25 14:49:00,52.2,30.9,30.02,SSW,198,6.0,6.0,44,0.00,,,0.10,567,Wunderground v.1.15,2013-02-25 22:49:00,
2013-02-25 14:58:00,52.6,27.7,30.02,South,185,6.0,8.0,38,0.00,,,0.10,486,Wunderground v.1.15,2013-02-25 22:58:00,
2013-02-25 15:09:00,52.9,30.4,30.02,WNW,288,5.0,7.0,42,0.00,,,0.10,401,Wunderground v.1.15,2013-02-25 23:09:00,
2013-02-25 15:19:00,53.1,28.8,30.03,NNW,330,2.0,6.0,39,0.00,,,0.10,347,Wunderground v.1.15,2013-02-25 23:19:00,
2013-02-25 15:29:00,51.6,28.0,30.03,NW,312,3.0,4.0,40,0.00,,,0.10,315,Wunderground v.1.15,2013-02-25 23:29:00,
2013-02-25 15:43:00,52.6,28.3,30.04,West,272,1.0,6.0,39,0.00,,,0.10,318,Wunderground v.1.15,2013-02-25 23:43:00,
2013-02-25 15:53:00,52.9,28.0,30.04,South,175,1.0,5.0,38,0.00,,,0.10,257,Wunderground v.1.15,2013-02-25 23:53:00,
2013-02-25 15:59:00,52.9,27.3,30.04,SSW,198,2.0,6.0,37,0.00,,,0.10,165,Wunderground v.1.15,2013-02-25 23:59:00,
2013-02-25 16:09:00,51.4,27.2,30.05,SSW,208,7.0,7.0,39,0.00,,,0.10,174,Wunderground v.1.15,2013-02-26 00:09:00,
2013-02-25 16:24:00,51.1,28.8,30.06,SSE,161,4.0,7.0,42,0.00,,,0.10,146,Wunderground v.1.15,2013-02-26 00:24:00,
2013-02-25 16:33:00,49.6,29.1,30.07,SSE,152,7.0,7.0,45,0.00,,,0.10,83,Wunderground v.1.15,2013-02-26 00:33:00,
2013-02-25 16:43:00,49.5,30.1,30.07,SSE,168,4.0,4.0,47,0.00,,,0.10,60,Wunderground v.1.15,2013-02-26 00:43:00,
2013-02-25 16:48:00,49.4,31.5,30.08,SSW,209,4.0,6.0,50,0.00,,,0.10,49,Wunderground v.1.15,2013-02-26 00:48:00,
2013-02-25 16:58:00,47.9,31.1,30.08,SSE,165,6.0,6.0,52,0.00,,,0.10,33,Wunderground v.1.15,2013-02-26 00:58:00,
2013-02-25 17:09:00,47.4,31.6,30.08,SSE,164,3.0,10.0,54,0.00,,,0.10,33,Wunderground v.1.15,2013-02-26 01:09:00,
2013-02-25 17:19:00,47.0,32.1,30.09,South,169,7.0,7.0,56,0.00,,,0.10,35,Wunderground v.1.15,2013-02-26 01:19:00,
2013-02-25 17:29:00,46.5,31.6,30.09,South,181,4.0,4.0,56,0.00,,,0.10,18,Wunderground v.1.15,2013-02-26 01:29:00,
2013-02-25 17:39:00,46.2,32.2,30.09,SSE,165,5.0,5.0,58,0.00,,,0.10,9,Wunderground v.1.15,2013-02-26 01:39:00,
2013-02-25 17:54:00,45.8,32.3,30.10,South,191,4.0,8.0,59,0.00,,,0.10,5,Wunderground v.1.15,2013-02-26 01:54:00,
2013-02-25 17:59:00,45.8,32.3,30.10,South,171,5.0,10.0,59,0.00,,,0.10,0,Wunderground v.1.15,2013-02-26 01:59:00,
2013-02-25 18:09:00,45.5,32.4,30.10,SSE,164,4.0,5.0,60,0.00,,,0.10,0,Wunderground v.1.15,2013-02-26 02:09:00,
2013-02-25 18:19:00,45.2,32.9,30.11,SSW,198,6.0,7.0,62,0.00,,,0.10,0,Wunderground v.1.15,2013-02-26 02:19:00,
2013-02-25 18:29:00,44.6,33.2,30.11,SSW,199,4.0,11.0,64,0.00,,,0.10,0,Wunderground v.1.15,2013-02-26 02:29:00,
2013-02-25 18:38:00,44.3,33.7,30.12,SSW,192,5.0,9.0,66,0.00,,,0.10,0,Wunderground v.1.15,2013-02-26 02:38:00,
2013-02-25 18:53:00,43.8,33.6,30.14,SE,128,1.0,1.0,67,0.00,,,0.10,0,Wunderground v.1.15,2013-02-26 02:53:00,
2013-02-25 18:59:00,43.5,33.6,30.14,SE,128,0.0,1.0,68,0.00,,,0.10,0,Wunderground v.1.15,2013-02-26 02:59:00,
2013-02-25 19:09:00,43.1,32.9,30.15,SE,126,0.0,0.0,67,0.00,,,0.10,0,Wunderground v.1.15,2013-02-26 03:09:00,
2013-02-25 19:19:00,42.9,32.7,30.16,ESE,109,1.0,5.0,67,0.00,,,0.10,0,Wunderground v.1.15,2013-02-26 03:19:00,
2013-02-25 19:29:00,42.8,33.0,30.16,SE,143,1.0,1.0,68,0.00,,,0.10,0,Wunderground v.1.15,2013-02-26 03:29:00,
2013-02-25 19:39:00,42.6,33.1,30.16,SE,133,1.0,2.0,69,0.00,,,0.10,0,Wunderground v.1.15,2013-02-26 03:39:00,
2013-02-25 19:49:00,42.5,33.4,30.16,SE,126,1.0,2.0,70,0.00,,,0.10,0,Wunderground v.1.15,2013-02-26 03:49:00,
2013-02-25 19:59:00,42.5,33.4,30.16,South,172,2.0,2.0,70,0.00,,,0.10,0,Wunderground v.1.15,2013-02-26 03:59:00,
2013-02-25 20:14:00,42.3,33.2,30.17,SE,140,1.0,1.0,70,0.00,,,0.10,0,Wunderground v.1.15,2013-02-26 04:14:00,
2013-02-25 20:19:00,42.3,33.6,30.17,ESE,104,1.0,1.0,71,0.00,,,0.10,0,Wunderground v.1.15,2013-02-26 04:19:00,
2013-02-25 20:29:00,42.3,33.6,30.17,ESE,103,1.0,1.0,71,0.00,,,0.10,0,Wunderground v.1.15,2013-02-26 04:29:00,
2013-02-25 20:39:00,42.2,33.5,30.18,ESE,109,1.0,2.0,71,0.00,,,0.10,0,Wunderground v.1.15,2013-02-26 04:39:00,
2013-02-25 20:49:00,42.2,33.5,30.19,ESE,107,2.0,2.0,71,0.00,,,0.10,0,Wunderground v.1.15,2013-02-26 04:49:00,
2013-02-25 20:59:00,42.1,33.7,30.19,ESE,103,2.0,3.0,72,0.00,,,0.10,0,Wunderground v.1.15,2013-02-26 04:59:00,
2013-02-25 21:04:00,42.1,34.1,30.19,ESE,107,2.0,2.0,73,0.00,,,0.10,0,Wunderground v.1.15,2013-02-26 05:04:00,
2013-02-25 21:09:00,41.9,33.9,30.19,ESE,107,1.0,2.0,73,0.00,,,0.10,0,Wunderground v.1.15,2013-02-26 05:09:00,
2013-02-25 21:20:00,41.6,33.6,30.20,ESE,102,2.0,2.0,73,0.00,,,0.10,0,Wunderground v.1.15,2013-02-26 05:20:00,
2013-02-25 21:24:00,41.6,33.6,30.20,SE,124,3.0,3.0,73,0.00,,,0.10,0,Wunderground v.1.15,2013-02-26 05:24:00,
2013-02-25 21:30:00,41.6,33.6,30.20,SE,136,2.0,3.0,73,0.00,,,0.10,0,Wunderground v.1.15,2013-02-26 05:30:00,
2013-02-25 21:38:00,41.5,33.5,30.21,ESE,106,3.0,5.0,73,0.00,,,0.10,0,Wunderground v.1.15,2013-02-26 05:38:00,
2013-02-25 21:48:00,41.6,33.6,30.22,East,93,3.0,4.0,73,0.00,,,0.10,0,Wunderground v.1.15,2013-02-26 05:48:00,
2013-02-25 21:53:00,41.6,33.9,30.22,East,97,4.0,4.0,74,0.00,,,0.10,0,Wunderground v.1.15,2013-02-26 05:53:00,
2013-02-25 21:58:00,41.5,34.2,30.22,East,96,3.0,4.0,75,0.00,,,0.10,0,Wunderground v.1.15,2013-02-26 05:58:00,
2013-02-25 22:09:00,41.1,34.4,30.22,East,100,4.0,5.0,77,0.00,,,0.10,0,Wunderground v.1.15,2013-02-26 06:09:00,
2013-02-25 22:19:00,40.6,34.3,30.22,ESE,110,4.0,5.0,78,0.00,,,0.10,0,Wunderground v.1.15,2013-02-26 06:19:00,
2013-02-25 22:29:00,40.5,34.2,30.22,ESE,104,2.0,3.0,78,0.00,,,0.10,0,Wunderground v.1.15,2013-02-26 06:29:00,
2013-02-25 22:43:00,40.5,34.2,30.23,East,92,2.0,6.0,78,0.00,,,0.10,0,Wunderground v.1.15,2013-02-26 06:43:00,
2013-02-25 22:49:00,40.5,34.2,30.23,East,93,2.0,6.0,78,0.00,,,0.10,0,Wunderground v.1.15,2013-02-26 06:49:00,
2013-02-25 22:59:00,40.3,34.0,30.23,East,96,2.0,2.0,78,0.00,,,0.10,0,Wunderground v.1.15,2013-02-26 06:59:00,
2013-02-25 23:09:00,40.2,33.9,30.24,East,85,3.0,3.0,78,0.00,,,0.10,0,Wunderground v.1.15,2013-02-26 07:09:00,
2013-02-25 23:19:00,40.1,33.8,30.23,East,88,2.0,6.0,78,0.00,,,0.10,0,Wunderground v.1.15,2013-02-26 07:19:00,
2013-02-25 23:29:00,40.1,33.8,30.23,East,93,3.0,3.0,78,0.00,,,0.10,0,Wunderground v.1.15,2013-02-26 07:29:00,
2013-02-25 23:39:00,39.8,33.8,30.24,SSE,160,1.0,1.0,79,0.00,,,0.10,0,Wunderground v.1.15,2013-02-26 07:39:00,
2013-02-25 23:49:00,39.9,33.9,30.25,East,99,3.0,6.0,79,0.00,,,0.10,0,Wunderground v.1.15,2013-02-26 07:49:00,
2013-02-25 23:59:00,39.9,33.9,30.25,East,99,3.0,4.0,79,0.00,,,0.10,0,Wunderground v.1.15,2013-02-26 07:59:00,